North Platte, NE

3:45 AM CDT on August 19, 2017 (GMT -0500)
North Platte Regional-Bird

Weather History for KLBF - October, 2011

Change the Weather History Date:

Saturday, October 8, 2011

  Actual Average Record
Temperature  
Mean Temperature 58 °F 52 °F  
Max Temperature 63 °F 68 °F 89 °F (1893)
Min Temperature 52 °F 37 °F 15 °F (2000)
Degree Days  
Heating Degree Days 7 13  
Month to date heating degree days 16 93  
Since 1 July heating degree days 191 264  
Cooling Degree Days 0 0  
Month to date cooling degree days 17 0  
Year to date cooling degree days 921 765  
Growing Degree Days 8 (Base 50)    
Moisture  
Dew Point 55 °F    
Average Humidity 89    
Maximum Humidity 100    
Minimum Humidity 78    
Precipitation  
Precipitation 1.09 in 0.05 in 1.27 in (1993)
Month to date precipitation 1.73 0.43  
Year to date precipitation 22.83 18.06  
Snow  
Snow 0.00 in 0.10 in 3.00 in (1970)
Month to date snowfall 0.0 0.3  
Since 1 July snowfall 0.0 0.5  
Since 1 September snowfall 0.0 0.5  
Snow Depth 0.00 in    
Sea Level Pressure  
Sea Level Pressure 29.91 in    
Wind  
Wind Speed 13 mph (ESE)    
Max Wind Speed 38 mph    
Max Gust Speed 48 mph    
Visibility 8 miles    
Events Rain , Thunderstorm    
T = Trace of Precipitation, MM = Missing Value Source: NWS Daily Summary

Daily Weather History Graph

Daily Weather History Graph

Search for Another Location

Airport or City:

Trip Planner

Search our weather history database for the weather conditions in past years. The results will help you decide how hot, cold, wet, or windy it might be!

Date:

Astronomy

Oct. 08, 2011 Rise Set
Actual Time 7:46 AM CDT 7:13 PM CDT
Civil Twilight 7:18 AM CDT 7:40 PM CDT
Nautical Twilight 6:47 AM CDT 8:12 PM CDT
Astronomical Twilight 6:14 AM CDT 8:44 PM CDT
Moon 5:25 PM CDT (10/8) 4:34 AM CDT (10/8)
Length of Visible Light 12h 22m
Length of Day
11h 26m
Waxing Gibbous, 90% of the Moon is Illuminated
Oct 8
Waxing Gibbous
Oct 11
Full
Oct 19
Last Quarter
Oct 26
New
Nov 2
First Quarter

Hourly Weather History & Observations

Time (CDT) Temp. Dew Point Humidity Pressure Visibility Wind Dir Wind Speed Gust Speed Precip Events Conditions
12:03 AM 57.2 °F 57.2 °F 100% 29.86 in 1.8 mi Calm Calm - 0.12 in Rain , Thunderstorm Heavy Thunderstorms and Rain
12:16 AM 57.2 °F 55.4 °F 94% 29.86 in 3.0 mi East 8.1 mph - 0.27 in Rain , Thunderstorm Heavy Thunderstorms and Rain
12:44 AM 57.2 °F 55.4 °F 94% 29.88 in 5.0 mi East 8.1 mph - 0.41 in Rain , Thunderstorm Rain
12:53 AM 57.0 °F 55.0 °F 93% 29.82 in 6.0 mi ENE 9.2 mph - 0.45 in Rain , Thunderstorm Rain
1:05 AM 57.2 °F 55.4 °F 94% 29.87 in 10.0 mi ENE 9.2 mph - 0.01 in Rain Light Rain
1:38 AM 57.2 °F 55.4 °F 94% 29.87 in 8.0 mi East 10.4 mph - 0.11 in Rain , Thunderstorm Light Rain
1:47 AM 57.2 °F 55.4 °F 94% 29.88 in 9.0 mi ESE 9.2 mph - 0.12 in Rain Light Rain
1:53 AM 57.0 °F 55.9 °F 96% 29.81 in 7.0 mi East 9.2 mph - 0.14 in Rain , Thunderstorm Thunderstorms and Rain
2:09 AM 57.2 °F 55.4 °F 94% 29.91 in 8.0 mi SE 9.2 mph - 0.03 in Rain Light Rain
2:49 AM 55.4 °F 55.4 °F 100% 29.92 in 4.0 mi ENE 3.5 mph - 0.16 in Rain , Thunderstorm Thunderstorms and Rain
2:53 AM 55.9 °F 55.9 °F 100% 29.86 in 4.0 mi ENE 4.6 mph - 0.18 in Rain , Thunderstorm Thunderstorms and Rain
3:03 AM 57.2 °F 55.4 °F 94% 29.93 in 3.0 mi Calm Calm - 0.05 in Rain Rain
3:10 AM 55.4 °F 55.4 °F 100% 29.92 in 2.5 mi North 4.6 mph - 0.09 in Rain Rain
3:19 AM 57.2 °F 55.4 °F 94% 29.92 in 5.0 mi North 6.9 mph - 0.11 in Rain Light Rain
3:53 AM 57.0 °F 55.9 °F 96% 29.86 in 7.0 mi NE 11.5 mph - 0.16 in Rain Rain
4:16 AM 57.2 °F 55.4 °F 94% 29.93 in 5.0 mi East 10.4 mph - 0.06 in Rain Rain
4:37 AM 57.2 °F 57.2 °F 100% 29.93 in 4.0 mi East 4.6 mph - 0.15 in Rain Heavy Rain
4:53 AM 57.0 °F 55.9 °F 96% 29.78 in 7.0 mi NE 13.8 mph - 0.19 in Rain Light Rain
5:46 AM 57.2 °F 55.4 °F 94% 29.95 in 10.0 mi SE 6.9 mph - 0.03 in Rain Light Rain
5:53 AM 57.0 °F 55.9 °F 96% 29.88 in 6.0 mi ESE 6.9 mph - 0.04 in Rain Rain
6:07 AM 55.4 °F 55.4 °F 100% 29.96 in 6.0 mi ESE 8.1 mph - 0.03 in Rain Rain
6:53 AM 55.9 °F 55.9 °F 100% 29.90 in 7.0 mi East 9.2 mph - 0.11 in Rain Rain
7:42 AM 57.2 °F 57.2 °F 100% 29.90 in 10.0 mi East 16.1 mph - 0.06 in Rain Light Rain
7:53 AM 57.2 °F 57.2 °F 100% 29.90 in 10.0 mi East 17.3 mph - N/A Rain Light Rain
8:00 AM 57.2 °F 57.2 °F 100% 29.92 in 9.0 mi ESE 16.1 mph - 0.01 in Rain Light Rain
8:26 AM 57.2 °F 57.2 °F 100% 29.95 in 10.0 mi ESE 12.7 mph - 0.03 in Rain Light Rain
8:53 AM 57.0 °F 57.0 °F 100% 29.94 in 8.0 mi ESE 11.5 mph - 0.06 in Rain Light Rain
9:19 AM 57.2 °F 55.4 °F 94% 29.93 in 10.0 mi East 12.7 mph 21.9 mph 0.02 in Rain Light Rain
9:53 AM 57.0 °F 55.9 °F 96% 29.93 in 8.0 mi East 16.1 mph 28.8 mph 0.06 in Rain Light Rain
10:53 AM 57.2 °F 55.4 °F 94% 29.85 in 8.0 mi East 31.1 mph 48.3 mph N/A Rain Light Rain
11:53 AM 57.9 °F 54.0 °F 87% 29.84 in 10.0 mi East 20.7 mph 31.1 mph 0.01 in   Clear
12:53 PM 59.0 °F 55.4 °F 88% 29.90 in 10.0 mi SE 13.8 mph - N/A   Clear
1:53 PM 61.0 °F 55.0 °F 81% 29.88 in 10.0 mi SE 20.7 mph 26.5 mph N/A   Mostly Cloudy
2:53 PM 61.0 °F 55.0 °F 81% 29.88 in 10.0 mi ESE 20.7 mph 28.8 mph N/A   Overcast
3:18 PM 60.8 °F 55.4 °F 82% 29.92 in 10.0 mi SE 17.3 mph 28.8 mph N/A   Overcast
3:50 PM 62.6 °F 55.4 °F 77% 29.92 in 10.0 mi ESE 17.3 mph 24.2 mph N/A   Overcast
3:53 PM 62.1 °F 55.9 °F 80% 29.88 in 10.0 mi ESE 18.4 mph 24.2 mph N/A   Overcast
4:14 PM 62.6 °F 55.4 °F 77% 29.93 in 10.0 mi SE 15.0 mph - N/A   Overcast
4:23 PM 62.6 °F 55.4 °F 77% 29.94 in 10.0 mi SE 17.3 mph 25.3 mph N/A   Overcast
4:53 PM 62.1 °F 55.0 °F 78% 29.92 in 10.0 mi SSE 16.1 mph 23.0 mph N/A   Overcast
5:53 PM 61.0 °F 54.0 °F 78% 29.92 in 10.0 mi SSE 15.0 mph 26.5 mph N/A   Mostly Cloudy
6:53 PM 60.1 °F 53.1 °F 78% 29.95 in 10.0 mi SE 11.5 mph - N/A   Scattered Clouds
7:53 PM 57.0 °F 53.1 °F 87% 29.96 in 10.0 mi SE 8.1 mph - N/A   Clear
8:53 PM 55.9 °F 53.1 °F 90% 29.99 in 10.0 mi SE 8.1 mph - N/A   Clear
9:53 PM 55.9 °F 53.1 °F 90% 30.02 in 10.0 mi SE 6.9 mph - N/A   Partly Cloudy
10:53 PM 55.9 °F 53.1 °F 90% 30.04 in 10.0 mi SE 6.9 mph - N/A   Scattered Clouds
11:53 PM 55.0 °F 52.0 °F 89% 30.04 in 10.0 mi SE 6.9 mph - N/A   Clear